Time,TemperatureF,DewpointF,PressureIn,WindDirection,WindDirectionDegrees,WindSpeedMPH,WindSpeedGustMPH,Humidity,HourlyPrecipIn,Conditions,Clouds,dailyrainin,SoftwareType,DateUTC
2013-10-15 00:01:00,54.0,51.7,30.25,WSW,248,0.0,0.2,92,0.00,,,0.00,WUHU216HW,2013-10-15 04:01:00,
2013-10-15 00:06:00,53.5,51.1,30.25,WSW,248,0.4,0.4,92,0.00,,,0.00,WUHU216HW,2013-10-15 04:06:00,
2013-10-15 00:11:00,52.9,50.3,30.25,WSW,248,0.0,0.4,91,0.00,,,0.00,WUHU216HW,2013-10-15 04:11:00,
2013-10-15 00:16:00,52.9,50.6,30.25,SSE,158,0.4,0.4,92,0.00,,,0.00,WUHU216HW,2013-10-15 04:16:00,
2013-10-15 00:21:00,53.1,50.8,30.25,SSE,158,0.2,0.4,92,0.00,,,0.00,WUHU216HW,2013-10-15 04:21:00,
2013-10-15 00:26:00,53.1,50.8,30.24,SSE,158,0.0,0.4,92,0.00,,,0.00,WUHU216HW,2013-10-15 04:26:00,
2013-10-15 00:31:00,52.9,50.6,30.25,SSE,158,0.7,0.7,92,0.00,,,0.00,WUHU216HW,2013-10-15 04:31:00,
2013-10-15 00:36:00,52.6,50.2,30.24,SSE,158,0.0,0.7,92,0.00,,,0.00,WUHU216HW,2013-10-15 04:36:00,
2013-10-15 00:41:00,52.4,50.0,30.25,SSW,203,0.4,0.7,92,0.00,,,0.00,WUHU216HW,2013-10-15 04:41:00,
2013-10-15 00:46:00,52.6,50.2,30.24,SSW,203,0.4,0.7,92,0.00,,,0.00,WUHU216HW,2013-10-15 04:46:00,
2013-10-15 00:51:00,52.7,50.4,30.24,SSE,158,0.4,0.7,92,0.00,,,0.00,WUHU216HW,2013-10-15 04:51:00,
2013-10-15 00:56:00,52.6,50.2,30.25,SSE,158,0.0,0.4,92,0.00,,,0.00,WUHU216HW,2013-10-15 04:56:00,
2013-10-15 01:01:00,52.4,50.0,30.24,South,180,0.0,0.4,92,0.00,,,0.00,WUHU216HW,2013-10-15 05:01:00,
2013-10-15 01:06:00,52.6,50.2,30.24,South,180,0.0,0.4,92,0.00,,,0.00,WUHU216HW,2013-10-15 05:06:00,
2013-10-15 01:11:00,52.6,50.2,30.24,South,180,0.0,0.2,92,0.00,,,0.00,WUHU216HW,2013-10-15 05:11:00,
2013-10-15 01:16:00,52.4,50.0,30.24,South,180,0.0,0.0,92,0.00,,,0.00,WUHU216HW,2013-10-15 05:16:00,
2013-10-15 01:21:00,52.2,50.2,30.24,South,180,0.0,0.2,93,0.00,,,0.00,WUHU216HW,2013-10-15 05:21:00,
2013-10-15 01:26:00,52.2,49.9,30.24,South,180,0.7,0.7,92,0.00,,,0.00,WUHU216HW,2013-10-15 05:26:00,
2013-10-15 01:31:00,52.4,50.4,30.24,WSW,248,1.1,1.1,93,0.00,,,0.00,WUHU216HW,2013-10-15 05:31:00,
2013-10-15 01:36:00,52.6,50.6,30.24,WSW,248,1.1,1.3,93,0.00,,,0.00,WUHU216HW,2013-10-15 05:36:00,
2013-10-15 01:41:00,52.7,51.0,30.24,WSW,248,0.0,1.3,94,0.00,,,0.00,WUHU216HW,2013-10-15 05:41:00,
2013-10-15 01:46:00,52.6,50.9,30.24,WSW,248,0.4,0.9,94,0.00,,,0.00,WUHU216HW,2013-10-15 05:46:00,
2013-10-15 01:51:00,52.2,50.5,30.24,WSW,248,0.0,0.4,94,0.00,,,0.00,WUHU216HW,2013-10-15 05:51:00,
2013-10-15 01:56:00,52.2,50.5,30.24,WSW,248,0.0,0.4,94,0.00,,,0.00,WUHU216HW,2013-10-15 05:56:00,
2013-10-15 02:01:00,52.2,50.5,30.24,WSW,248,0.7,0.7,94,0.00,,,0.00,WUHU216HW,2013-10-15 06:01:00,
2013-10-15 02:06:00,52.4,50.7,30.24,WSW,248,1.1,1.3,94,0.00,,,0.00,WUHU216HW,2013-10-15 06:06:00,
2013-10-15 02:11:00,52.6,50.9,30.24,West,270,1.3,1.8,94,0.00,,,0.00,WUHU216HW,2013-10-15 06:11:00,
2013-10-15 02:16:00,52.6,50.9,30.24,SSW,203,0.9,1.8,94,0.00,,,0.00,WUHU216HW,2013-10-15 06:16:00,
2013-10-15 02:21:00,52.6,50.9,30.24,West,270,1.8,2.5,94,0.00,,,0.00,WUHU216HW,2013-10-15 06:21:00,
2013-10-15 02:26:00,52.4,50.7,30.24,WSW,248,0.0,2.5,94,0.00,,,0.00,WUHU216HW,2013-10-15 06:26:00,
2013-10-15 02:31:00,52.4,50.7,30.24,WSW,248,0.7,1.8,94,0.00,,,0.00,WUHU216HW,2013-10-15 06:31:00,
2013-10-15 02:36:00,52.4,50.7,30.24,SW,225,0.4,1.3,94,0.00,,,0.00,WUHU216HW,2013-10-15 06:36:00,
2013-10-15 02:41:00,52.4,50.7,30.24,WSW,248,1.8,1.8,94,0.00,,,0.00,WUHU216HW,2013-10-15 06:41:00,
2013-10-15 02:46:00,52.4,50.7,30.24,WSW,248,0.9,1.8,94,0.00,,,0.00,WUHU216HW,2013-10-15 06:46:00,
2013-10-15 02:51:00,52.4,50.7,30.23,WSW,248,1.8,2.5,94,0.00,,,0.00,WUHU216HW,2013-10-15 06:51:00,
2013-10-15 02:56:00,52.6,50.9,30.24,West,270,1.1,2.5,94,0.00,,,0.00,WUHU216HW,2013-10-15 06:56:00,
2013-10-15 03:01:00,52.4,50.7,30.24,West,270,0.2,2.0,94,0.00,,,0.00,WUHU216HW,2013-10-15 07:01:00,
2013-10-15 03:06:00,52.2,50.5,30.23,WSW,248,0.0,1.6,94,0.00,,,0.00,WUHU216HW,2013-10-15 07:06:00,
2013-10-15 03:11:00,52.2,50.5,30.23,WSW,248,0.0,0.2,94,0.00,,,0.00,WUHU216HW,2013-10-15 07:11:00,
2013-10-15 03:16:00,52.0,50.3,30.23,WSW,248,0.0,0.0,94,0.00,,,0.00,WUHU216HW,2013-10-15 07:16:00,
2013-10-15 03:21:00,51.8,50.1,30.23,WSW,248,0.0,0.0,94,0.00,,,0.00,WUHU216HW,2013-10-15 07:21:00,
2013-10-15 03:26:00,51.7,50.0,30.23,SSE,158,0.4,0.7,94,0.00,,,0.00,WUHU216HW,2013-10-15 07:26:00,
2013-10-15 03:31:00,51.3,49.6,30.23,SSE,158,0.4,0.7,94,0.00,,,0.00,WUHU216HW,2013-10-15 07:31:00,
2013-10-15 03:36:00,50.9,49.2,30.23,SSE,158,0.2,0.4,94,0.00,,,0.00,WUHU216HW,2013-10-15 07:36:00,
2013-10-15 03:41:00,50.4,48.7,30.23,SSE,158,0.9,0.9,94,0.00,,,0.00,WUHU216HW,2013-10-15 07:41:00,
2013-10-15 03:46:00,50.0,48.3,30.23,SE,135,1.1,1.8,94,0.00,,,0.00,WUHU216HW,2013-10-15 07:46:00,
2013-10-15 03:51:00,50.0,48.3,30.22,SE,135,0.7,1.8,94,0.00,,,0.00,WUHU216HW,2013-10-15 07:51:00,
2013-10-15 03:56:00,49.9,48.2,30.22,SE,135,0.0,1.1,94,0.00,,,0.00,WUHU216HW,2013-10-15 07:56:00,
2013-10-15 04:01:00,49.9,48.2,30.22,SE,135,0.0,0.7,94,0.00,,,0.00,WUHU216HW,2013-10-15 08:01:00,
2013-10-15 04:06:00,49.9,48.2,30.23,SE,135,0.0,0.0,94,0.00,,,0.00,WUHU216HW,2013-10-15 08:06:00,
2013-10-15 04:11:00,50.0,48.3,30.22,WSW,248,1.8,1.8,94,0.00,,,0.00,WUHU216HW,2013-10-15 08:11:00,
2013-10-15 04:16:00,50.2,48.5,30.22,WSW,248,1.6,2.5,94,0.01,,,0.01,WUHU216HW,2013-10-15 08:16:00,
2013-10-15 04:21:00,50.2,48.5,30.22,SW,225,0.9,2.5,94,0.01,,,0.01,WUHU216HW,2013-10-15 08:21:00,
2013-10-15 04:26:00,50.0,48.6,30.22,SSW,203,0.0,1.8,95,0.01,,,0.01,WUHU216HW,2013-10-15 08:26:00,
2013-10-15 04:31:00,50.0,48.6,30.22,SSE,158,0.0,1.1,95,0.01,,,0.01,WUHU216HW,2013-10-15 08:31:00,
2013-10-15 04:36:00,49.9,48.4,30.22,SW,225,0.7,1.1,95,0.01,,,0.01,WUHU216HW,2013-10-15 08:36:00,
2013-10-15 04:41:00,49.7,48.2,30.22,WSW,248,0.9,1.1,95,0.01,,,0.01,WUHU216HW,2013-10-15 08:41:00,
2013-10-15 04:46:00,49.7,48.2,30.22,SSW,203,0.7,1.1,95,0.01,,,0.01,WUHU216HW,2013-10-15 08:46:00,
2013-10-15 04:50:00,49.7,48.2,30.22,SW,225,0.9,1.6,95,0.01,,,0.01,WUHU216HW,2013-10-15 08:50:00,
2013-10-15 04:55:00,49.7,48.2,30.22,SW,225,1.1,1.8,95,0.01,,,0.01,WUHU216HW,2013-10-15 08:55:00,
2013-10-15 05:00:00,49.5,48.1,30.21,West,270,1.8,1.8,95,0.01,,,0.01,WUHU216HW,2013-10-15 09:00:00,
2013-10-15 05:05:00,49.5,48.1,30.21,SW,225,0.7,1.8,95,0.01,,,0.01,WUHU216HW,2013-10-15 09:05:00,
2013-10-15 05:10:00,49.5,48.1,30.21,SSW,203,1.3,1.6,95,0.01,,,0.01,WUHU216HW,2013-10-15 09:10:00,
2013-10-15 05:15:00,49.3,47.9,30.21,SW,225,0.7,1.3,95,0.00,,,0.01,WUHU216HW,2013-10-15 09:15:00,
2013-10-15 05:20:00,49.3,47.9,30.21,SW,225,0.4,1.3,95,0.00,,,0.01,WUHU216HW,2013-10-15 09:20:00,
2013-10-15 05:25:00,49.7,48.2,30.21,SW,225,1.1,1.3,95,0.00,,,0.01,WUHU216HW,2013-10-15 09:25:00,
2013-10-15 05:30:00,49.7,48.2,30.21,SSW,203,1.1,1.6,95,0.00,,,0.01,WUHU216HW,2013-10-15 09:30:00,
2013-10-15 05:35:00,49.7,48.2,30.21,WSW,248,1.1,1.6,95,0.00,,,0.01,WUHU216HW,2013-10-15 09:35:00,
2013-10-15 05:40:00,49.9,48.4,30.20,WNW,293,1.1,1.3,95,0.00,,,0.01,WUHU216HW,2013-10-15 09:40:00,
2013-10-15 05:45:00,50.0,48.6,30.20,West,270,1.1,2.5,95,0.00,,,0.01,WUHU216HW,2013-10-15 09:45:00,
2013-10-15 05:50:00,50.0,48.6,30.21,WNW,293,1.8,2.5,95,0.00,,,0.01,WUHU216HW,2013-10-15 09:50:00,
2013-10-15 05:55:00,50.2,48.8,30.21,WSW,248,1.6,2.9,95,0.00,,,0.01,WUHU216HW,2013-10-15 09:55:00,
2013-10-15 06:00:00,50.2,48.8,30.21,West,270,1.8,2.9,95,0.00,,,0.01,WUHU216HW,2013-10-15 10:00:00,
2013-10-15 06:05:00,50.2,48.8,30.21,West,270,1.1,2.2,95,0.00,,,0.01,WUHU216HW,2013-10-15 10:05:00,
2013-10-15 06:10:00,50.4,49.0,30.21,West,270,0.4,2.2,95,0.00,,,0.01,WUHU216HW,2013-10-15 10:10:00,
2013-10-15 06:15:00,50.4,49.0,30.21,West,270,2.5,2.5,95,0.00,,,0.01,WUHU216HW,2013-10-15 10:15:00,
2013-10-15 06:20:00,50.4,49.0,30.21,WSW,248,1.1,2.5,95,0.00,,,0.01,WUHU216HW,2013-10-15 10:20:00,
2013-10-15 06:25:00,50.4,49.0,30.22,WSW,248,1.8,2.5,95,0.00,,,0.01,WUHU216HW,2013-10-15 10:25:00,
2013-10-15 06:30:00,50.4,49.0,30.22,SW,225,0.7,2.7,95,0.00,,,0.01,WUHU216HW,2013-10-15 10:30:00,
2013-10-15 06:35:00,50.2,48.8,30.21,WSW,248,0.9,2.7,95,0.00,,,0.01,WUHU216HW,2013-10-15 10:35:00,
2013-10-15 06:40:00,50.0,48.6,30.22,West,270,1.3,2.7,95,0.00,,,0.01,WUHU216HW,2013-10-15 10:40:00,
2013-10-15 06:45:00,50.0,48.6,30.22,West,270,0.4,2.7,95,0.00,,,0.01,WUHU216HW,2013-10-15 10:45:00,
2013-10-15 06:50:00,50.0,48.6,30.21,SSW,203,0.4,1.3,95,0.00,,,0.01,WUHU216HW,2013-10-15 10:50:00,
2013-10-15 06:55:00,50.0,48.6,30.21,SE,135,0.7,1.1,95,0.00,,,0.01,WUHU216HW,2013-10-15 10:55:00,
2013-10-15 07:00:00,49.7,48.2,30.21,SE,135,0.2,1.1,95,0.00,,,0.01,WUHU216HW,2013-10-15 11:00:00,
2013-10-15 07:05:00,49.3,47.9,30.22,SSW,203,1.1,1.1,95,0.00,,,0.01,WUHU216HW,2013-10-15 11:05:00,
2013-10-15 07:10:00,49.1,47.7,30.22,SW,225,0.4,1.1,95,0.00,,,0.01,WUHU216HW,2013-10-15 11:10:00,
2013-10-15 07:15:00,49.1,47.7,30.22,SW,225,0.2,1.3,95,0.00,,,0.01,WUHU216HW,2013-10-15 11:15:00,
2013-10-15 07:20:00,49.0,47.6,30.22,SSW,203,1.1,1.3,95,0.00,,,0.01,WUHU216HW,2013-10-15 11:20:00,
2013-10-15 07:25:00,48.8,47.4,30.22,SSW,203,0.9,1.6,95,0.00,,,0.01,WUHU216HW,2013-10-15 11:25:00,
2013-10-15 07:30:00,48.8,47.4,30.23,SW,225,1.8,1.8,95,0.00,,,0.01,WUHU216HW,2013-10-15 11:30:00,
2013-10-15 07:35:00,48.6,47.5,30.23,SSW,203,0.7,1.8,96,0.00,,,0.01,WUHU216HW,2013-10-15 11:35:00,
2013-10-15 07:40:00,48.6,47.5,30.23,SW,225,0.7,1.8,96,0.00,,,0.01,WUHU216HW,2013-10-15 11:40:00,
2013-10-15 07:45:00,48.6,47.5,30.23,SW,225,1.3,1.6,96,0.00,,,0.01,WUHU216HW,2013-10-15 11:45:00,
2013-10-15 07:50:00,48.6,47.5,30.23,SSW,203,1.1,1.8,96,0.00,,,0.01,WUHU216HW,2013-10-15 11:50:00,
2013-10-15 07:55:00,48.6,47.5,30.23,WSW,248,1.8,3.4,96,0.00,,,0.01,WUHU216HW,2013-10-15 11:55:00,
2013-10-15 08:00:00,48.8,47.7,30.23,WSW,248,1.1,3.4,96,0.00,,,0.01,WUHU216HW,2013-10-15 12:00:00,
2013-10-15 08:05:00,48.8,47.7,30.23,WSW,248,0.4,1.8,96,0.00,,,0.01,WUHU216HW,2013-10-15 12:05:00,
2013-10-15 08:10:00,48.8,47.7,30.23,SSW,203,1.3,1.8,96,0.00,,,0.01,WUHU216HW,2013-10-15 12:10:00,
2013-10-15 08:15:00,48.6,47.5,30.23,SSW,203,0.7,1.8,96,0.00,,,0.01,WUHU216HW,2013-10-15 12:15:00,
2013-10-15 08:20:00,48.6,47.5,30.23,SSW,203,0.7,1.8,96,0.00,,,0.01,WUHU216HW,2013-10-15 12:20:00,
2013-10-15 08:25:00,48.6,47.5,30.23,SSW,203,0.4,1.1,96,0.00,,,0.01,WUHU216HW,2013-10-15 12:25:00,
2013-10-15 08:30:00,49.0,47.9,30.23,WSW,248,1.3,1.3,96,0.00,,,0.01,WUHU216HW,2013-10-15 12:30:00,
2013-10-15 08:35:00,49.1,48.1,30.24,WSW,248,1.1,1.6,96,0.00,,,0.01,WUHU216HW,2013-10-15 12:35:00,
2013-10-15 08:40:00,49.3,48.3,30.24,SW,225,0.4,1.6,96,0.00,,,0.01,WUHU216HW,2013-10-15 12:40:00,
2013-10-15 08:45:00,49.3,48.3,30.24,South,180,0.2,1.6,96,0.00,,,0.01,WUHU216HW,2013-10-15 12:45:00,
2013-10-15 08:50:00,49.3,48.3,30.24,SSW,203,0.7,1.8,96,0.00,,,0.01,WUHU216HW,2013-10-15 12:50:00,
2013-10-15 08:55:00,49.5,48.3,30.24,SSW,203,0.4,1.8,96,0.00,,,0.01,WUHU216HW,2013-10-15 12:55:00,
2013-10-15 09:00:00,49.9,48.7,30.24,SW,225,1.6,1.8,96,0.00,,,0.01,WUHU216HW,2013-10-15 13:00:00,
2013-10-15 09:05:00,50.0,48.9,30.24,SW,225,0.9,1.8,96,0.00,,,0.01,WUHU216HW,2013-10-15 13:05:00,
2013-10-15 09:10:00,50.2,49.1,30.24,South,180,1.1,1.3,96,0.00,,,0.01,WUHU216HW,2013-10-15 13:10:00,
2013-10-15 09:15:00,50.4,49.2,30.24,South,180,1.1,1.3,96,0.00,,,0.01,WUHU216HW,2013-10-15 13:15:00,
2013-10-15 09:20:00,50.8,49.6,30.24,SW,225,1.6,2.0,96,0.00,,,0.01,WUHU216HW,2013-10-15 13:20:00,
2013-10-15 09:25:00,51.1,50.0,30.24,South,180,0.7,2.0,96,0.00,,,0.01,WUHU216HW,2013-10-15 13:25:00,
2013-10-15 09:30:00,51.1,49.7,30.24,SSE,158,0.4,1.6,95,0.00,,,0.01,WUHU216HW,2013-10-15 13:30:00,
2013-10-15 09:35:00,51.5,50.0,30.24,West,270,0.4,1.3,95,0.00,,,0.01,WUHU216HW,2013-10-15 13:35:00,
2013-10-15 09:40:00,51.5,50.0,30.24,SSE,158,0.7,1.3,95,0.00,,,0.01,WUHU216HW,2013-10-15 13:40:00,
2013-10-15 09:45:00,51.5,50.0,30.24,SW,225,0.4,1.3,95,0.00,,,0.01,WUHU216HW,2013-10-15 13:45:00,
2013-10-15 09:50:00,51.8,50.4,30.24,West,270,1.1,1.3,95,0.00,,,0.01,WUHU216HW,2013-10-15 13:50:00,
2013-10-15 09:55:00,52.2,50.8,30.23,West,270,0.2,1.1,95,0.00,,,0.01,WUHU216HW,2013-10-15 13:55:00,
2013-10-15 10:00:00,52.4,50.9,30.23,SSW,203,1.1,2.2,95,0.00,,,0.01,WUHU216HW,2013-10-15 14:00:00,
2013-10-15 10:05:00,52.2,50.8,30.23,WNW,293,1.1,2.2,95,0.00,,,0.01,WUHU216HW,2013-10-15 14:05:00,
2013-10-15 10:10:00,52.2,50.8,30.23,West,270,0.4,1.1,95,0.00,,,0.01,WUHU216HW,2013-10-15 14:10:00,
2013-10-15 10:15:00,52.7,51.3,30.23,West,270,0.2,1.1,95,0.00,,,0.01,WUHU216HW,2013-10-15 14:15:00,
2013-10-15 10:20:00,53.3,51.8,30.23,West,270,3.4,3.4,95,0.00,,,0.01,WUHU216HW,2013-10-15 14:20:00,
2013-10-15 10:25:00,53.3,51.8,30.23,West,270,1.8,3.4,95,0.00,,,0.01,WUHU216HW,2013-10-15 14:25:00,
2013-10-15 10:30:00,53.5,52.0,30.23,SW,225,0.4,3.4,95,0.00,,,0.01,WUHU216HW,2013-10-15 14:30:00,
2013-10-15 10:35:00,54.0,52.8,30.23,NNW,338,0.0,2.2,96,0.00,,,0.01,WUHU216HW,2013-10-15 14:35:00,
2013-10-15 10:40:00,54.4,53.2,30.23,WNW,293,1.1,2.2,96,0.00,,,0.01,WUHU216HW,2013-10-15 14:40:00,
2013-10-15 10:45:00,54.4,53.2,30.22,NW,315,0.4,2.2,96,0.00,,,0.01,WUHU216HW,2013-10-15 14:45:00,
2013-10-15 10:50:00,54.9,53.7,30.22,WSW,248,0.2,2.2,96,0.00,,,0.01,WUHU216HW,2013-10-15 14:50:00,
2013-10-15 10:55:00,55.3,54.1,30.22,West,270,0.0,1.8,96,0.00,,,0.01,WUHU216HW,2013-10-15 14:55:00,
2013-10-15 11:00:00,55.4,54.3,30.22,South,180,0.7,1.6,96,0.00,,,0.01,WUHU216HW,2013-10-15 15:00:00,
2013-10-15 11:05:00,55.6,54.5,30.22,NNE,23,0.4,1.6,96,0.00,,,0.01,WUHU216HW,2013-10-15 15:05:00,
2013-10-15 11:10:00,56.0,54.5,30.22,West,270,2.2,2.2,95,0.00,,,0.01,WUHU216HW,2013-10-15 15:10:00,
2013-10-15 11:15:00,56.0,54.5,30.22,WSW,248,0.0,2.5,95,0.00,,,0.01,WUHU216HW,2013-10-15 15:15:00,
2013-10-15 11:20:00,56.5,55.1,30.22,ESE,113,0.0,2.5,95,0.00,,,0.01,WUHU216HW,2013-10-15 15:20:00,
2013-10-15 11:25:00,57.2,55.8,30.21,WNW,293,2.5,2.5,95,0.00,,,0.01,WUHU216HW,2013-10-15 15:25:00,
2013-10-15 11:30:00,57.6,56.2,30.21,WSW,248,0.0,2.5,95,0.00,,,0.01,WUHU216HW,2013-10-15 15:30:00,
2013-10-15 11:35:00,58.1,56.4,30.21,SE,135,1.3,2.5,94,0.00,,,0.01,WUHU216HW,2013-10-15 15:35:00,
2013-10-15 11:40:00,58.9,56.5,30.22,ESE,113,2.2,2.2,92,0.00,,,0.01,WUHU216HW,2013-10-15 15:40:00,
2013-10-15 11:45:00,59.8,57.8,30.21,SSE,158,0.4,2.2,93,0.00,,,0.01,WUHU216HW,2013-10-15 15:45:00,
2013-10-15 11:50:00,60.8,58.9,30.21,North,0,0.7,2.2,93,0.00,,,0.01,WUHU216HW,2013-10-15 15:50:00,
2013-10-15 11:55:00,61.6,58.1,30.21,SSE,158,1.3,1.8,88,0.00,,,0.01,WUHU216HW,2013-10-15 15:55:00,
2013-10-15 12:00:00,62.3,58.7,30.21,ENE,68,1.1,1.8,88,0.00,,,0.01,WUHU216HW,2013-10-15 16:00:00,
2013-10-15 12:05:00,63.0,59.8,30.21,WSW,248,0.4,1.8,89,0.00,,,0.01,WUHU216HW,2013-10-15 16:05:00,
2013-10-15 12:10:00,63.7,59.9,30.20,SE,135,0.7,2.7,87,0.00,,,0.01,WUHU216HW,2013-10-15 16:10:00,
2013-10-15 12:15:00,64.3,58.7,30.21,ESE,113,0.7,2.7,82,0.00,,,0.01,WUHU216HW,2013-10-15 16:15:00,
2013-10-15 12:20:00,64.8,59.2,30.21,SE,135,0.4,2.0,82,0.00,,,0.01,WUHU216HW,2013-10-15 16:20:00,
2013-10-15 12:25:00,65.0,58.7,30.21,WSW,248,1.3,3.6,80,0.00,,,0.01,WUHU216HW,2013-10-15 16:25:00,
2013-10-15 12:30:00,65.5,58.9,30.20,SE,135,0.4,3.6,79,0.00,,,0.01,WUHU216HW,2013-10-15 16:30:00,
2013-10-15 12:35:00,65.9,60.6,30.20,NNE,23,1.1,2.2,83,0.00,,,0.01,WUHU216HW,2013-10-15 16:35:00,
2013-10-15 12:40:00,66.6,59.6,30.20,SSW,203,0.4,2.2,78,0.00,,,0.01,WUHU216HW,2013-10-15 16:40:00,
2013-10-15 12:45:00,67.0,56.9,30.19,ENE,68,1.8,2.7,70,0.00,,,0.01,WUHU216HW,2013-10-15 16:45:00,
2013-10-15 12:50:00,67.3,57.2,30.19,SE,135,1.1,3.4,70,0.00,,,0.01,WUHU216HW,2013-10-15 16:50:00,
2013-10-15 12:55:00,67.9,60.9,30.19,North,0,0.4,3.4,78,0.00,,,0.01,WUHU216HW,2013-10-15 16:55:00,
2013-10-15 13:00:00,68.2,58.2,30.18,SSW,203,1.6,2.9,70,0.00,,,0.01,WUHU216HW,2013-10-15 17:00:00,
2013-10-15 13:05:00,67.5,54.5,30.18,South,180,0.7,2.7,63,0.00,,,0.01,WUHU216HW,2013-10-15 17:05:00,
2013-10-15 13:10:00,67.3,53.8,30.18,SSW,203,0.9,2.5,62,0.00,,,0.01,WUHU216HW,2013-10-15 17:10:00,
2013-10-15 13:15:00,67.5,55.7,30.17,NNW,338,0.0,2.0,66,0.00,,,0.01,WUHU216HW,2013-10-15 17:15:00,
2013-10-15 13:20:00,67.7,54.6,30.17,South,180,2.5,2.9,63,0.00,,,0.01,WUHU216HW,2013-10-15 17:20:00,
2013-10-15 13:25:00,68.0,55.8,30.16,WSW,248,2.0,2.9,65,0.00,,,0.01,WUHU216HW,2013-10-15 17:25:00,
2013-10-15 13:30:00,68.8,58.6,30.16,NW,315,0.9,2.5,70,0.00,,,0.01,WUHU216HW,2013-10-15 17:30:00,
2013-10-15 13:35:00,69.5,56.8,30.15,ENE,68,2.5,2.5,64,0.00,,,0.01,WUHU216HW,2013-10-15 17:35:00,
2013-10-15 13:40:00,69.7,56.9,30.15,NNE,23,6.3,6.3,64,0.00,,,0.01,WUHU216HW,2013-10-15 17:40:00,
2013-10-15 13:45:00,69.5,53.6,30.16,SE,135,3.1,6.3,57,0.00,,,0.01,WUHU216HW,2013-10-15 17:45:00,
2013-10-15 13:50:00,69.5,53.6,30.15,SW,225,1.6,6.3,57,0.00,,,0.01,WUHU216HW,2013-10-15 17:50:00,
2013-10-15 13:55:00,69.7,55.3,30.15,NE,45,1.1,3.1,60,0.00,,,0.01,WUHU216HW,2013-10-15 17:55:00,
2013-10-15 14:00:00,69.8,56.3,30.15,NNW,338,1.1,3.4,62,0.00,,,0.01,WUHU216HW,2013-10-15 18:00:00,
2013-10-15 14:05:00,70.2,55.8,30.15,West,270,1.3,3.4,60,0.00,,,0.01,WUHU216HW,2013-10-15 18:05:00,
2013-10-15 14:10:00,70.9,55.5,30.15,ENE,68,2.5,3.4,58,0.00,,,0.01,WUHU216HW,2013-10-15 18:10:00,
2013-10-15 14:15:00,70.6,55.6,30.15,North,0,0.4,3.4,59,0.00,,,0.01,WUHU216HW,2013-10-15 18:15:00,
2013-10-15 14:20:00,70.4,53.4,30.15,ESE,113,1.8,2.5,55,0.00,,,0.01,WUHU216HW,2013-10-15 18:20:00,
2013-10-15 14:25:00,70.2,53.3,30.15,SE,135,0.7,2.7,55,0.00,,,0.01,WUHU216HW,2013-10-15 18:25:00,
2013-10-15 14:30:00,69.8,51.4,30.15,East,90,1.1,3.1,52,0.00,,,0.01,WUHU216HW,2013-10-15 18:30:00,
2013-10-15 14:35:00,70.0,52.1,30.14,SE,135,1.3,3.1,53,0.00,,,0.01,WUHU216HW,2013-10-15 18:35:00,
2013-10-15 14:40:00,70.4,53.9,30.14,ENE,68,0.0,3.6,56,0.00,,,0.01,WUHU216HW,2013-10-15 18:40:00,
2013-10-15 14:45:00,70.2,53.3,30.14,NE,45,3.4,3.8,55,0.00,,,0.01,WUHU216HW,2013-10-15 18:45:00,
2013-10-15 14:50:00,69.8,51.9,30.13,SE,135,0.4,4.5,53,0.00,,,0.01,WUHU216HW,2013-10-15 18:50:00,
2013-10-15 14:55:00,69.8,53.5,30.13,North,0,1.1,4.5,56,0.00,,,0.01,WUHU216HW,2013-10-15 18:55:00,
2013-10-15 15:00:00,70.0,52.6,30.13,ENE,68,2.0,3.4,54,0.00,,,0.01,WUHU216HW,2013-10-15 19:00:00,
2013-10-15 15:05:00,70.2,52.2,30.13,East,90,1.8,2.0,53,0.00,,,0.01,WUHU216HW,2013-10-15 19:05:00,
2013-10-15 15:10:00,70.2,53.3,30.13,East,90,0.9,2.5,55,0.00,,,0.01,WUHU216HW,2013-10-15 19:10:00,
2013-10-15 15:15:00,70.4,53.4,30.12,SW,225,0.0,2.5,55,0.00,,,0.01,WUHU216HW,2013-10-15 19:15:00,
2013-10-15 15:20:00,70.7,53.2,30.12,SW,225,0.4,1.8,54,0.00,,,0.01,WUHU216HW,2013-10-15 19:20:00,
2013-10-15 15:25:00,70.7,54.3,30.12,ENE,68,0.0,1.8,56,0.00,,,0.01,WUHU216HW,2013-10-15 19:25:00,
2013-10-15 15:30:00,70.9,53.9,30.12,West,270,1.1,2.7,55,0.00,,,0.01,WUHU216HW,2013-10-15 19:30:00,
2013-10-15 15:35:00,70.9,52.4,30.12,SW,225,2.5,2.7,52,0.00,,,0.01,WUHU216HW,2013-10-15 19:35:00,
2013-10-15 15:40:00,70.9,51.8,30.12,WSW,248,2.5,3.4,51,0.00,,,0.01,WUHU216HW,2013-10-15 19:40:00,
2013-10-15 15:45:00,70.9,53.9,30.12,West,270,0.4,3.4,55,0.00,,,0.01,WUHU216HW,2013-10-15 19:45:00,
2013-10-15 15:50:00,71.5,54.9,30.12,West,270,0.9,2.5,56,0.00,,,0.01,WUHU216HW,2013-10-15 19:50:00,
2013-10-15 15:55:00,71.6,53.0,30.12,West,270,1.6,1.8,52,0.00,,,0.01,WUHU216HW,2013-10-15 19:55:00,
2013-10-15 16:00:00,71.8,55.2,30.12,NE,45,0.0,1.8,56,0.00,,,0.01,WUHU216HW,2013-10-15 20:00:00,
2013-10-15 16:05:00,71.8,53.2,30.11,SE,135,1.6,3.1,52,0.00,,,0.01,WUHU216HW,2013-10-15 20:05:00,
2013-10-15 16:10:00,71.1,53.0,30.11,SSW,203,1.1,3.1,53,0.00,,,0.01,WUHU216HW,2013-10-15 20:10:00,
2013-10-15 16:15:00,70.6,52.0,30.11,SSW,203,2.0,2.7,52,0.00,,,0.01,WUHU216HW,2013-10-15 20:15:00,
2013-10-15 16:20:00,70.0,51.6,30.12,South,180,1.1,2.0,52,0.00,,,0.01,WUHU216HW,2013-10-15 20:20:00,
2013-10-15 16:25:00,70.0,53.1,30.12,SSE,158,1.1,2.0,55,0.00,,,0.01,WUHU216HW,2013-10-15 20:25:00,
2013-10-15 16:30:00,70.2,52.2,30.12,SE,135,1.6,2.9,53,0.00,,,0.01,WUHU216HW,2013-10-15 20:30:00,
2013-10-15 16:35:00,70.2,53.7,30.12,SE,135,0.7,2.9,56,0.00,,,0.01,WUHU216HW,2013-10-15 20:35:00,
2013-10-15 16:40:00,69.8,51.9,30.11,SE,135,0.7,2.7,53,0.00,,,0.01,WUHU216HW,2013-10-15 20:40:00,
2013-10-15 16:45:00,69.7,52.3,30.12,ESE,113,1.1,2.2,54,0.00,,,0.01,WUHU216HW,2013-10-15 20:45:00,
2013-10-15 16:50:00,69.1,52.8,30.12,ESE,113,1.6,2.5,56,0.00,,,0.01,WUHU216HW,2013-10-15 20:50:00,
2013-10-15 16:55:00,68.8,52.9,30.12,SSE,158,0.4,2.5,57,0.00,,,0.01,WUHU216HW,2013-10-15 20:55:00,
2013-10-15 17:00:00,68.8,52.9,30.11,ESE,113,1.6,1.8,57,0.00,,,0.01,WUHU216HW,2013-10-15 21:00:00,
2013-10-15 17:05:00,68.4,52.6,30.11,ESE,113,0.9,1.6,57,0.00,,,0.01,WUHU216HW,2013-10-15 21:05:00,
2013-10-15 17:10:00,68.4,52.6,30.11,ESE,113,1.1,1.6,57,0.00,,,0.01,WUHU216HW,2013-10-15 21:10:00,
2013-10-15 17:15:00,68.0,52.7,30.11,SE,135,0.7,1.6,58,0.00,,,0.01,WUHU216HW,2013-10-15 21:15:00,
2013-10-15 17:20:00,68.0,53.2,30.11,SE,135,0.4,1.1,59,0.00,,,0.01,WUHU216HW,2013-10-15 21:20:00,
2013-10-15 17:25:00,67.9,52.5,30.11,SE,135,0.7,0.9,58,0.00,,,0.01,WUHU216HW,2013-10-15 21:25:00,
2013-10-15 17:30:00,67.7,53.7,30.11,SE,135,0.2,0.9,61,0.00,,,0.01,WUHU216HW,2013-10-15 21:30:00,
2013-10-15 17:35:00,67.5,54.9,30.11,SW,225,0.7,0.7,64,0.00,,,0.01,WUHU216HW,2013-10-15 21:35:00,
2013-10-15 17:40:00,66.8,55.0,30.11,SW,225,0.0,0.7,66,0.00,,,0.01,WUHU216HW,2013-10-15 21:40:00,
2013-10-15 17:45:00,66.4,55.5,30.10,NE,45,0.9,0.9,68,0.00,,,0.01,WUHU216HW,2013-10-15 21:45:00,
2013-10-15 17:50:00,65.9,55.0,30.11,NE,45,0.0,0.9,68,0.00,,,0.01,WUHU216HW,2013-10-15 21:50:00,
2013-10-15 17:55:00,65.5,55.5,30.11,NE,45,0.0,0.4,70,0.00,,,0.01,WUHU216HW,2013-10-15 21:55:00,
2013-10-15 18:00:00,65.2,55.2,30.11,NE,45,0.0,0.4,70,0.00,,,0.01,WUHU216HW,2013-10-15 22:00:00,
2013-10-15 18:05:00,64.8,55.3,30.11,NE,45,0.2,0.2,71,0.00,,,0.01,WUHU216HW,2013-10-15 22:05:00,
2013-10-15 18:10:00,64.3,55.1,30.11,WNW,293,0.0,0.4,72,0.00,,,0.01,WUHU216HW,2013-10-15 22:10:00,
2013-10-15 18:15:00,63.9,55.1,30.11,WNW,293,0.0,0.4,73,0.00,,,0.01,WUHU216HW,2013-10-15 22:15:00,
2013-10-15 18:20:00,63.5,55.1,30.11,WNW,293,0.0,0.0,74,0.00,,,0.01,WUHU216HW,2013-10-15 22:20:00,
2013-10-15 18:25:00,63.0,54.9,30.11,North,0,0.4,0.4,75,0.00,,,0.01,WUHU216HW,2013-10-15 22:25:00,
2013-10-15 18:30:00,62.3,54.2,30.11,North,0,0.4,0.9,75,0.00,,,0.01,WUHU216HW,2013-10-15 22:30:00,
2013-10-15 18:35:00,61.9,54.6,30.11,North,0,0.4,0.9,77,0.00,,,0.01,WUHU216HW,2013-10-15 22:35:00,
2013-10-15 18:40:00,61.2,54.4,30.11,NNE,23,0.4,1.1,78,0.00,,,0.01,WUHU216HW,2013-10-15 22:40:00,
2013-10-15 18:45:00,60.8,54.4,30.11,NNE,23,0.0,1.1,79,0.00,,,0.01,WUHU216HW,2013-10-15 22:45:00,
2013-10-15 18:50:00,60.3,54.2,30.11,NNE,23,0.7,0.7,80,0.00,,,0.01,WUHU216HW,2013-10-15 22:50:00,
2013-10-15 18:55:00,59.9,53.8,30.11,NNE,23,0.4,0.7,80,0.00,,,0.01,WUHU216HW,2013-10-15 22:55:00,
2013-10-15 19:00:00,59.8,54.0,30.11,NNE,23,0.4,0.7,81,0.00,,,0.01,WUHU216HW,2013-10-15 23:00:00,
2013-10-15 19:05:00,59.4,53.7,30.11,NNE,23,0.9,0.9,81,0.00,,,0.01,WUHU216HW,2013-10-15 23:05:00,
2013-10-15 19:10:00,59.0,53.6,30.11,NNE,23,0.4,1.1,82,0.00,,,0.01,WUHU216HW,2013-10-15 23:10:00,
2013-10-15 19:15:00,58.7,53.2,30.11,NNE,23,0.0,1.1,82,0.00,,,0.01,WUHU216HW,2013-10-15 23:15:00,
2013-10-15 19:20:00,58.5,53.0,30.11,NNE,23,0.0,0.4,82,0.00,,,0.01,WUHU216HW,2013-10-15 23:20:00,
2013-10-15 19:25:00,58.3,52.8,30.11,NNE,23,0.0,0.0,82,0.00,,,0.01,WUHU216HW,2013-10-15 23:25:00,
2013-10-15 19:30:00,58.1,53.6,30.11,SW,225,0.4,0.4,85,0.00,,,0.01,WUHU216HW,2013-10-15 23:30:00,
2013-10-15 19:35:00,58.0,53.1,30.11,SW,225,0.0,0.4,84,0.00,,,0.01,WUHU216HW,2013-10-15 23:35:00,
2013-10-15 19:40:00,58.0,52.8,30.11,SW,225,0.0,0.4,83,0.00,,,0.01,WUHU216HW,2013-10-15 23:40:00,
2013-10-15 19:45:00,57.8,53.7,30.11,SSW,203,0.2,0.4,86,0.00,,,0.01,WUHU216HW,2013-10-15 23:45:00,
2013-10-15 19:50:00,57.6,52.7,30.11,SSW,203,0.7,0.7,84,0.00,,,0.01,WUHU216HW,2013-10-15 23:50:00,
2013-10-15 19:55:00,57.2,52.4,30.11,South,180,0.4,0.7,84,0.00,,,0.01,WUHU216HW,2013-10-15 23:55:00,
2013-10-15 20:00:00,56.9,52.4,30.11,South,180,0.0,0.4,85,0.00,,,0.01,WUHU216HW,2013-10-16 00:00:00,
2013-10-15 20:05:00,56.5,51.7,30.11,East,90,0.4,0.7,84,0.00,,,0.01,WUHU216HW,2013-10-16 00:05:00,
2013-10-15 20:10:00,56.2,51.3,30.11,East,90,0.4,0.7,84,0.00,,,0.01,WUHU216HW,2013-10-16 00:10:00,
2013-10-15 20:15:00,55.8,50.9,30.11,ENE,68,0.7,0.7,84,0.00,,,0.01,WUHU216HW,2013-10-16 00:15:00,
2013-10-15 20:20:00,55.8,51.3,30.11,ENE,68,0.2,0.7,85,0.00,,,0.01,WUHU216HW,2013-10-16 00:20:00,
2013-10-15 20:25:00,56.2,51.7,30.11,ENE,68,0.0,0.4,85,0.00,,,0.01,WUHU216HW,2013-10-16 00:25:00,
2013-10-15 20:30:00,56.3,52.2,30.11,West,270,0.0,0.9,86,0.00,,,0.01,WUHU216HW,2013-10-16 00:30:00,
2013-10-15 20:35:00,56.2,51.7,30.11,West,270,0.2,0.9,85,0.00,,,0.01,WUHU216HW,2013-10-16 00:35:00,
2013-10-15 20:40:00,56.0,51.1,30.11,NNE,23,1.1,1.1,84,0.00,,,0.01,WUHU216HW,2013-10-16 00:40:00,
2013-10-15 20:45:00,55.8,51.3,30.11,North,0,0.2,1.1,85,0.00,,,0.01,WUHU216HW,2013-10-16 00:45:00,
2013-10-15 20:50:00,55.4,50.9,30.11,NNE,23,0.0,1.1,85,0.00,,,0.01,WUHU216HW,2013-10-16 00:50:00,
2013-10-15 20:55:00,55.4,51.3,30.12,NNE,23,0.0,0.4,86,0.00,,,0.01,WUHU216HW,2013-10-16 00:55:00,
2013-10-15 21:00:00,55.4,51.3,30.12,NNE,23,0.0,0.4,86,0.00,,,0.01,WUHU216HW,2013-10-16 01:00:00,
2013-10-15 21:05:00,55.4,50.9,30.11,NNE,23,0.4,0.4,85,0.00,,,0.01,WUHU216HW,2013-10-16 01:05:00,
2013-10-15 21:10:00,55.3,50.8,30.11,NNE,23,0.0,0.4,85,0.00,,,0.01,WUHU216HW,2013-10-16 01:10:00,
2013-10-15 21:15:00,55.1,50.6,30.11,NNE,23,0.0,0.4,85,0.00,,,0.01,WUHU216HW,2013-10-16 01:15:00,
2013-10-15 21:20:00,54.9,50.4,30.11,NNE,23,0.2,0.2,85,0.00,,,0.01,WUHU216HW,2013-10-16 01:20:00,
2013-10-15 21:25:00,54.7,50.6,30.11,NNE,23,0.4,0.4,86,0.00,,,0.01,WUHU216HW,2013-10-16 01:25:00,
2013-10-15 21:30:00,54.4,50.2,30.11,NNE,23,0.4,0.4,86,0.00,,,0.01,WUHU216HW,2013-10-16 01:30:00,
2013-10-15 21:35:00,54.4,51.2,30.10,ESE,113,0.4,1.1,89,0.00,,,0.01,WUHU216HW,2013-10-16 01:35:00,
2013-10-15 21:40:00,54.7,51.2,30.10,ESE,113,0.4,1.1,88,0.00,,,0.01,WUHU216HW,2013-10-16 01:40:00,
2013-10-15 21:45:00,54.7,50.9,30.11,ESE,113,0.0,0.4,87,0.00,,,0.01,WUHU216HW,2013-10-16 01:45:00,
2013-10-15 21:50:00,54.7,50.6,30.10,ESE,113,0.2,0.2,86,0.00,,,0.01,WUHU216HW,2013-10-16 01:50:00,
2013-10-15 21:55:00,54.7,50.6,30.10,ESE,113,0.0,0.7,86,0.00,,,0.01,WUHU216HW,2013-10-16 01:55:00,
2013-10-15 22:00:00,54.5,50.4,30.10,ESE,113,0.0,0.7,86,0.00,,,0.01,WUHU216HW,2013-10-16 02:00:00,
2013-10-15 22:05:00,54.4,50.2,30.10,ESE,113,0.4,0.4,86,0.00,,,0.01,WUHU216HW,2013-10-16 02:05:00,
2013-10-15 22:10:00,54.4,50.2,30.10,ESE,113,0.0,0.7,86,0.00,,,0.01,WUHU216HW,2013-10-16 02:10:00,
2013-10-15 22:15:00,54.4,50.2,30.10,ESE,113,0.0,0.7,86,0.00,,,0.01,WUHU216HW,2013-10-16 02:15:00,
2013-10-15 22:20:00,54.4,50.6,30.10,West,270,0.4,0.7,87,0.00,,,0.01,WUHU216HW,2013-10-16 02:20:00,
2013-10-15 22:25:00,54.4,50.9,30.10,West,270,0.0,0.7,88,0.00,,,0.01,WUHU216HW,2013-10-16 02:25:00,
2013-10-15 22:30:00,54.4,50.6,30.10,West,270,0.0,0.4,87,0.00,,,0.01,WUHU216HW,2013-10-16 02:30:00,
2013-10-15 22:35:00,54.2,50.4,30.10,West,270,0.0,0.0,87,0.00,,,0.01,WUHU216HW,2013-10-16 02:35:00,
2013-10-15 22:40:00,54.0,49.9,30.10,NE,45,0.0,0.4,86,0.00,,,0.01,WUHU216HW,2013-10-16 02:40:00,
2013-10-15 22:45:00,53.6,49.5,30.10,NE,45,0.0,0.4,86,0.00,,,0.01,WUHU216HW,2013-10-16 02:45:00,
2013-10-15 22:50:00,53.3,49.1,30.10,NE,45,0.4,0.9,86,0.00,,,0.01,WUHU216HW,2013-10-16 02:50:00,
2013-10-15 22:55:00,52.9,49.2,30.10,NE,45,0.0,0.9,87,0.00,,,0.01,WUHU216HW,2013-10-16 02:55:00,
2013-10-15 23:00:00,52.9,49.2,30.10,NE,45,0.7,0.7,87,0.00,,,0.01,WUHU216HW,2013-10-16 03:00:00,
2013-10-15 23:05:00,52.6,48.8,30.10,NE,45,0.2,1.6,87,0.00,,,0.01,WUHU216HW,2013-10-16 03:05:00,
2013-10-15 23:10:00,52.4,48.9,30.09,NE,45,0.0,1.6,88,0.00,,,0.01,WUHU216HW,2013-10-16 03:10:00,
2013-10-15 23:15:00,52.2,48.7,30.09,NE,45,0.0,0.9,88,0.00,,,0.01,WUHU216HW,2013-10-16 03:15:00,
2013-10-15 23:20:00,52.2,48.7,30.09,NE,45,0.0,0.4,88,0.00,,,0.01,WUHU216HW,2013-10-16 03:20:00,
2013-10-15 23:25:00,52.2,48.7,30.09,NE,45,0.0,0.4,88,0.00,,,0.01,WUHU216HW,2013-10-16 03:25:00,
2013-10-15 23:30:00,52.2,49.1,30.09,WSW,248,0.0,0.4,89,0.00,,,0.01,WUHU216HW,2013-10-16 03:30:00,
2013-10-15 23:35:00,52.4,49.8,30.10,SW,225,0.2,1.1,91,0.00,,,0.01,WUHU216HW,2013-10-16 03:35:00,
2013-10-15 23:40:00,52.6,50.0,30.09,SW,225,0.7,1.1,91,0.00,,,0.01,WUHU216HW,2013-10-16 03:40:00,
2013-10-15 23:45:00,52.7,50.4,30.09,SW,225,0.0,0.9,92,0.00,,,0.01,WUHU216HW,2013-10-16 03:45:00,
2013-10-15 23:50:00,52.7,50.1,30.09,SW,225,0.4,0.9,91,0.00,,,0.01,WUHU216HW,2013-10-16 03:50:00,
2013-10-15 23:55:00,52.9,50.6,30.10,SW,225,0.4,0.7,92,0.00,,,0.01,WUHU216HW,2013-10-16 03:55:00,